This demonstration page uses our WeatherBlox Daily Observations layout. Learn more.

Left ArrowRight Arrow

Hourly Observations for March 7, 2020

Temp ( °F °C ) Dew Point ( °F °C ) Humidity (%) Winds ( mph kmh ) Pressure ( in mb ) Visibility ( mi km ) Precip ( " mm )
12:54 am 00:54 Clear 43 6.1 19 -7.2 38 38 S 13 20 30.26 1025 10 16.0934 0 0
1:54 am 01:54 Clear 42 5.6 19 -7.2 40 40 S 14 22 30.24 1024 10 16.0934 0 0
2:54 am 02:54 Clear 44 6.7 19 -7.2 37 37 S 17 28 30.21 1023 10 16.0934 0 0
3:54 am 03:54 Clear 45 7.2 19 -7.2 35 35 S 18 30 30.19 1022 10 16.0934 0 0
4:54 am 04:54 Clear 46 7.8 19 -7.2 34 34 S 20 31 30.16 1022 10 16.0934 0 0
5:54 am 05:54 Clear 45 7.2 20 -6.7 37 37 S 18 30 30.16 1021 10 16.0934 0 0
6:54 am 06:54 Sunny 46 7.8 21 -6.1 37 37 S 20 31 30.16 1021 10 16.0934 0 0
7:54 am 07:54 Sunny 50 10 22 -5.6 33 33 S 23 37 30.16 1021 10 16.0934 0 0
8:54 am 08:54 Sunny 54 12.2 22 -5.6 29 29 S 24 39 30.15 1021 10 16.0934 0 0
9:54 am 09:54 Sunny 59 15 24 -4.4 26 26 S 25 41 30.13 1020 10 16.0934 0 0
10:54 am 10:54 Sunny 63 17.2 24 -4.4 23 23 S 29 46 30.11 1020 10 16.0934 0 0
11:54 am 11:54 Sunny 66 18.9 26 -3.3 22 22 SSW 23 37 30.08 1019 10 16.0934 0 0
12:54 pm 12:54 Sunny 68 20 28 -2.2 22 22 S 31 50 30.04 1017 10 16.0934 0 0
1:54 pm 13:54 Sunny 71 21.7 30 -1.1 22 22 SSW 29 46 30 1016 10 16.0934 0 0
2:54 pm 14:54 Sunny 71 21.7 30 -1.1 22 22 SSW 29 46 29.97 1015 10 16.0934 0 0
3:54 pm 15:54 Sunny 72 22.2 31 -0.6 22 22 SSW 29 46 29.95 1014 10 16.0934 0 0
4:54 pm 16:54 Sunny 70 21.1 30 -1.1 23 23 SSW 25 41 29.96 1014 10 16.0934 0 0
5:54 pm 17:54 Sunny 67 19.4 29 -1.7 24 24 S 21 33 29.96 1015 10 16.0934 0 0
6:54 pm 18:54 Clear 63 17.2 27 -2.8 26 26 S 16 26 29.98 1015 10 16.0934 0 0
7:54 pm 19:54 Clear 60 15.6 24 -4.4 25 25 S 22 35 29.98 1015 10 16.0934 0 0
8:54 pm 20:54 Clear 58 14.4 23 -5 26 26 S 21 33 29.98 1015 10 16.0934 0 0
9:54 pm 21:54 Clear 55 12.8 23 -5 29 29 S 16 26 29.98 1015 10 16.0934 0 0
10:54 pm 22:54 Clear 54 12.2 24 -4.4 31 31 S 20 31 29.97 1015 10 16.0934 0 0
11:54 pm 23:54 Clear 54 12.2 24 -4.4 31 31 S 17 28 29.96 1015 10 16.0934 0 0

Powered by AerisWeather